Weather History for Moffett NAS, CA

Change the Weather History Date:

Tuesday, March 20, 2012

  Actual Average Record
Temperature  
Mean Temperature 59 °F 56 °F  
Max Temperature 66 °F 65 °F 82 °F (2004)
Min Temperature 51 °F 47 °F 37 °F (1952)
Degree Days  
Heating Degree Days 6    
Month to date heating degree days 216  
Since 1 July heating degree days 1620  
Cooling Degree Days 0    
Month to date cooling degree days 0  
Year to date cooling degree days 0  
Growing Degree Days 8 (Base 50)    
Moisture  
Dew Point 42 °F    
Average Humidity 63    
Maximum Humidity 83    
Minimum Humidity 42    
Precipitation  
Precipitation 0.00 in 0.06 in 1.00 in (1958)
Month to date precipitation 0.58 1.60  
Year to date precipitation 2.36 7.42  
Since 1 July precipitation 4.13 12.47  
Sea Level Pressure  
Sea Level Pressure 30.17 in    
Wind  
Wind Speed 4 mph (NNW)    
Max Wind Speed 15 mph    
Max Gust Speed 17 mph    
Visibility 10 miles    
Events      
T = Trace of Precipitation, MM = Missing Value Source: NWS Daily Summary

Daily Weather History Graph

Daily Weather History Graph

Search for Another Location

Airport:

Trip Planner

Search our weather history database for the weather conditions in past years. The results will help you decide how hot, cold, wet, or windy it might be!

Date:

Astronomy

Mar. 20, 2012 Rise Set
Actual Time 7:10 AM PDT 7:20 PM PDT
Civil Twilight 6:44 AM PDT 7:46 PM PDT
Nautical Twilight 6:14 AM PDT 8:17 PM PDT
Astronomical Twilight 5:43 AM PDT 8:48 PM PDT
Moon 5:54 AM PDT (3/20) 5:54 PM PDT (3/20)
Length of Visible Light 13h 01m
Length of Day
12h 09m
Waning Crescent, 3% of the Moon is Illuminated
Mar 20
Waning Crescent
Mar 22
New
Mar 30
First Quarter
Apr 6
Full
Apr 13
Last Quarter

Hourly Weather History & Observations

Time (PDT) Temp. Dew Point Humidity Pressure Visibility Wind Dir Wind Speed Gust Speed Precip Events Conditions
12:56 AM 52.0 °F 35.1 °F 53% 30.12 in 10.0 mi Calm Calm - N/A   Overcast
1:56 AM 52.0 °F 36.0 °F 54% 30.13 in 10.0 mi NE 3.5 mph - N/A   Overcast
2:56 AM 52.0 °F 37.9 °F 59% 30.14 in 10.0 mi North 3.5 mph - N/A   Overcast
3:56 AM 51.1 °F 39.0 °F 63% 30.13 in 10.0 mi Calm Calm - N/A   Overcast
4:56 AM 52.0 °F 37.9 °F 59% 30.13 in 10.0 mi Calm Calm - N/A   Overcast
5:56 AM 51.1 °F 37.9 °F 61% 30.14 in 10.0 mi Calm Calm - N/A   Overcast
6:56 AM 52.0 °F 37.0 °F 57% 30.16 in 10.0 mi Calm Calm - N/A   Overcast
7:56 AM 52.0 °F 36.0 °F 54% 30.18 in 10.0 mi Calm Calm - N/A   Overcast
8:56 AM 53.1 °F 36.0 °F 52% 30.19 in 10.0 mi SE 3.5 mph - N/A   Overcast
9:56 AM 55.0 °F 36.0 °F 49% 30.20 in 10.0 mi Calm Calm - N/A   Overcast
10:56 AM 60.1 °F 37.9 °F 44% 30.20 in 10.0 mi Calm Calm - N/A   Overcast
12:56 PM 62.1 °F 42.1 °F 48% 30.20 in 10.0 mi NNW 6.9 mph - N/A   Unknown
1:56 PM 63.0 °F 45.0 °F 52% 30.19 in 10.0 mi NNW 8.1 mph - N/A   Clear
2:56 PM 64.9 °F 46.9 °F 52% 30.17 in 10.0 mi NNW 4.6 mph - N/A   Scattered Clouds
3:56 PM 64.0 °F 46.9 °F 54% 30.16 in 10.0 mi NNW 15.0 mph - N/A   Clear
4:56 PM 63.0 °F 46.0 °F 54% 30.16 in 10.0 mi NNW 10.4 mph - N/A   Mostly Cloudy
5:56 PM 60.1 °F 46.0 °F 60% 30.16 in 10.0 mi NNW 8.1 mph - N/A   Overcast
6:56 PM 59.0 °F 46.0 °F 62% 30.17 in 10.0 mi NNW 6.9 mph - N/A   Overcast
7:56 PM 57.0 °F 48.0 °F 72% 30.18 in 10.0 mi NNW 4.6 mph - N/A   Partly Cloudy
8:56 PM 55.0 °F 48.9 °F 80% 30.20 in 10.0 mi NNW 6.9 mph - N/A   Clear
9:56 PM 55.0 °F 48.9 °F 80% 30.22 in 10.0 mi WNW 4.6 mph - N/A   Clear
10:56 PM 55.0 °F 48.0 °F 77% 30.22 in 10.0 mi WSW 3.5 mph - N/A   Clear
11:56 PM 53.1 °F 48.0 °F 83% 30.21 in 10.0 mi Calm Calm - N/A   Clear